Location: Red Bud (historical)
(37.7759°N, 88.4053°W)
Time: 03:29:31
(UTC+00:00)

Tiangong - Pass Details

Date: 21 June 2021
Orbit: 373 x 385 km, 41.5° (Epoch: 04 August)

Event Time Altitude Azimuth Distance (km) Brightness Sun altitude
Exits shadow 09:28:42 14° 262° (W) 1,183 3.0 -10.9°
Maximum altitude 09:31:18 67° 344° (NNW) 417 1.3 -10.5°
Drops below altitude 10° 09:34:27 10° 68° (ENE) 1,401 5.2 -10.1°
Sets 09:36:33 0° 71° (ENE) 2,259 6.4 -9.8°
